Concordia, KS

9:14 PM CDT on July 22, 2017 (GMT -0500)
Blosser Municipal

Weather History for KCNK - December, 2012

Change the Weather History Date:

Monday, December 3, 2012

  Actual Average Record
Temperature  
Mean Temperature 51 °F 33 °F  
Max Temperature 63 °F 43 °F 67 °F (1998)
Min Temperature 39 °F 23 °F -4 °F (1919)
Degree Days  
Heating Degree Days 14 32  
Month to date heating degree days 45 95  
Since 1 July heating degree days 1075 1187  
Cooling Degree Days 0 0  
Month to date cooling degree days 0 0  
Year to date cooling degree days 1643 1349  
Growing Degree Days 1 (Base 50)    
Moisture  
Dew Point 40 °F    
Average Humidity 66    
Maximum Humidity 93    
Minimum Humidity 39    
Precipitation  
Precipitation 0.00 in 0.03 in 1.27 in (2011)
Month to date precipitation 0.00 0.10  
Year to date precipitation 23.08 27.14  
Snow  
Snow 0.00 in 0.10 in 3.60 in (1971)
Month to date snowfall 0.0 0.3  
Year to date snowfall 5.8 16.7  
Since 1 July snowfall 0.0 3.0  
Snow Depth 0.00 in    
Sea Level Pressure  
Sea Level Pressure 29.84 in    
Wind  
Wind Speed 12 mph (WNW)    
Max Wind Speed 24 mph    
Max Gust Speed 29 mph    
Visibility 10 miles    
Events      
T = Trace of Precipitation, MM = Missing Value Source: NWS Daily Summary

Daily Weather History Graph

Daily Weather History Graph

Search for Another Location

Airport or City:

Trip Planner

Search our weather history database for the weather conditions in past years. The results will help you decide how hot, cold, wet, or windy it might be!

Date:

Astronomy

Dec. 03, 2012 Rise Set
Actual Time 7:34 AM CST 5:06 PM CST
Civil Twilight 7:04 AM CST 5:36 PM CST
Nautical Twilight 6:31 AM CST 6:10 PM CST
Astronomical Twilight 5:58 AM CST 6:42 PM CST
Moon 9:54 PM CST (12/3) 10:58 AM CST (12/3)
Length of Visible Light 10h 32m
Length of Day
9h 32m
Waning Gibbous, 78% of the Moon is Illuminated
Dec 3
Waning Gibbous
Dec 6
Last Quarter
Dec 13
New
Dec 19
First Quarter
Dec 28
Full

Hourly Weather History & Observations

Time (CST) Temp. Windchill Dew Point Humidity Pressure Visibility Wind Dir Wind Speed Gust Speed Precip Events Conditions
12:55 AM 51.1 °F - 43.0 °F 74% 29.65 in 10.0 mi South 15.0 mph - N/A   Clear
1:55 AM 53.1 °F - 46.9 °F 80% 29.62 in 10.0 mi South 17.3 mph - N/A   Clear
2:55 AM 55.0 °F - 50.0 °F 83% 29.60 in 10.0 mi South 16.1 mph - N/A   Clear
3:55 AM 55.9 °F - 52.0 °F 87% 29.59 in 10.0 mi South 15.0 mph - 0.01 in   Clear
4:55 AM 57.0 °F - 52.0 °F 83% 29.57 in 10.0 mi South 17.3 mph 23.0 mph N/A   Clear
5:55 AM 55.0 °F - 52.0 °F 89% 29.58 in 10.0 mi SSW 15.0 mph - N/A   Clear
6:55 AM 54.0 °F - 50.0 °F 86% 29.62 in 10.0 mi SW 10.4 mph - N/A   Clear
7:55 AM 46.9 °F - 45.0 °F 93% 29.67 in 7.0 mi West 4.6 mph - N/A   Clear
8:55 AM 50.0 °F - 46.0 °F 86% 29.70 in 10.0 mi West 9.2 mph - N/A   Clear
9:55 AM 52.0 °F - 39.0 °F 61% 29.74 in 10.0 mi West 10.4 mph - N/A   Clear
10:55 AM 53.1 °F - 39.9 °F 61% 29.77 in 10.0 mi WNW 9.2 mph - N/A   Clear
11:55 AM 55.0 °F - 39.9 °F 57% 29.82 in 10.0 mi NNW 18.4 mph 25.3 mph N/A   Clear
12:55 PM 60.8 °F - 41.0 °F 48% 29.84 in 10.0 mi North 19.6 mph 28.8 mph N/A   Clear
1:55 PM 63.0 °F - 39.0 °F 41% 29.85 in 10.0 mi North 20.7 mph 28.8 mph N/A   Clear
2:55 PM 62.1 °F - 37.0 °F 39% 29.88 in 10.0 mi North 21.9 mph 28.8 mph N/A   Clear
3:55 PM 60.1 °F - 37.0 °F 42% 29.91 in 10.0 mi North 12.7 mph - N/A   Clear
4:55 PM 57.0 °F - 36.0 °F 45% 29.95 in 10.0 mi North 8.1 mph - N/A   Clear
5:55 PM 53.1 °F - 34.0 °F 48% 30.00 in 10.0 mi NNW 10.4 mph - N/A   Clear
6:55 PM 50.0 °F - 32.0 °F 50% 30.04 in 10.0 mi North 6.9 mph - N/A   Clear
7:55 PM 48.0 °F - 30.9 °F 52% 30.06 in 10.0 mi NNW 8.1 mph - N/A   Clear
8:55 PM 45.0 °F 40.1 °F 30.9 °F 58% 30.08 in 10.0 mi NNW 9.2 mph - N/A   Clear
9:55 PM 44.1 °F 39.5 °F 30.0 °F 58% 30.10 in 10.0 mi NW 8.1 mph - N/A   Clear
10:55 PM 41.0 °F 35.8 °F 27.0 °F 57% 30.13 in 10.0 mi NW 8.1 mph - N/A   Clear
11:55 PM 39.0 °F 34.0 °F 26.1 °F 60% 30.14 in 10.0 mi NW 6.9 mph - N/A   Clear